スワン彗星

C/2025 F2 ( SWAN )

English version
Home page
Updated on June 14, 2025

---------------------------------------------------------------------

・ プロフィール

発見日 2025年3月22日
発見光度 11.5等、11等
発見者 Vladimir Bezugly, Michael Mattiazzo, Robert D. Matson (Solar Wind Anisotropies (SWAN) camera on the Solar and Heliospheric Observer (SOHO) spacecraft)

・ 写真集

・ 軌道要素

Epoch 2025 May 5.0 TT = JDT 2460800.5
T 2025 May 1.16161 TT                                   Payne
q   0.3334944            (2000.0)            P               Q
z  -0.0003269      Peri.  153.83737     -0.77745802     -0.37836253
 +/-0.0000260      Node   329.84074     +0.23610992     +0.56479172
e   1.0001090      Incl.   90.36487     +0.58293322     -0.73338401
From 512 observations 2024 Sept. 3-2025 Apr. 21, mean residual 2".1.

・ 星図

・ 光度変化

        m1 = 10.0 + 5 logΔ + 15.0 log r          [   ,-25]  (              〜2025年 4月 6日)
        m1 = 12.5 + 5 logΔ + 10.0 log r(t + 20)  [-25,   ]  (2025年 4月 6日〜              )

        ※ 灰色の曲線は、m1 = 10.0 + 5 logΔ + 15.0 log r の光度曲線です。

---------------------------------------------------------------------

軌道要素はM.P.E.C. 2025-J08に掲載されたものです。
星図はステラナビゲータ Ver.11 (アストロアーツ) で作成したものです。
光度グラフはComet for Windowsで作成したものです。

---------------------------------------------------------------------

Copyright(C) Seiichi Yoshida (comet@aerith.net). All rights reserved.